Time,TemperatureF,DewpointF,PressureIn,WindDirection,WindDirectionDegrees,WindSpeedMPH,WindSpeedGustMPH,Humidity,HourlyPrecipIn,Conditions,Clouds,dailyrainin,SoftwareType,DateUTC
2013-04-26 00:02:00,71.0,62.0,30.22,SE,129,1.0,2.0,73,99.99,,,-99.99,,2013-04-26 04:02:00,
2013-04-26 00:12:00,71.0,62.0,30.22,SE,129,1.0,2.0,73,99.99,,,-99.99,,2013-04-26 04:12:00,
2013-04-26 00:23:00,70.0,62.0,30.22,SE,125,0.0,2.0,76,99.99,,,-99.99,,2013-04-26 04:23:00,
2013-04-26 00:32:00,69.0,62.0,30.22,ESE,110,0.0,2.0,78,99.99,,,-99.99,,2013-04-26 04:32:00,
2013-04-26 00:43:00,69.0,62.0,30.22,ESE,110,0.0,2.0,78,99.99,,,-99.99,,2013-04-26 04:43:00,
2013-04-26 00:53:00,69.0,62.0,30.22,North,0,0.0,0.0,79,99.99,,,-99.99,,2013-04-26 04:53:00,
2013-04-26 01:02:00,68.0,62.0,30.22,North,0,0.0,0.0,82,99.99,,,-99.99,,2013-04-26 05:02:00,
2013-04-26 01:12:00,68.0,62.0,30.22,North,0,0.0,0.0,82,99.99,,,-99.99,,2013-04-26 05:12:00,
2013-04-26 01:22:00,67.0,62.0,30.21,SE,127,0.0,2.0,85,99.99,,,-99.99,,2013-04-26 05:22:00,
2013-04-26 01:32:00,67.0,63.0,30.21,SE,139,0.0,2.0,86,99.99,,,-99.99,,2013-04-26 05:32:00,
2013-04-26 01:42:00,67.0,63.0,30.21,SE,139,0.0,2.0,86,99.99,,,-99.99,,2013-04-26 05:42:00,
2013-04-26 01:52:00,67.0,63.0,30.21,ESE,122,0.0,1.0,87,99.99,,,-99.99,,2013-04-26 05:52:00,
2013-04-26 02:02:00,67.0,65.0,30.20,North,0,0.0,0.0,94,99.99,,,-99.99,,2013-04-26 06:02:00,
2013-04-26 02:11:00,67.0,65.0,30.20,North,0,0.0,0.0,94,99.99,,,-99.99,,2013-04-26 06:11:00,
2013-04-26 02:21:00,66.0,65.0,30.19,North,0,0.0,0.0,97,99.99,,,-99.99,,2013-04-26 06:21:00,
2013-04-26 02:32:00,66.0,65.0,30.18,North,0,0.0,0.0,96,99.99,,,-99.99,,2013-04-26 06:32:00,
2013-04-26 02:42:00,66.0,65.0,30.18,North,0,0.0,0.0,96,99.99,,,-99.99,,2013-04-26 06:42:00,
2013-04-26 02:52:00,66.0,65.0,30.18,North,0,0.0,0.0,97,99.99,,,-99.99,,2013-04-26 06:52:00,
2013-04-26 03:01:00,66.0,66.0,30.17,North,0,0.0,0.0,99,99.99,,,-99.99,,2013-04-26 07:01:00,
2013-04-26 03:11:00,66.0,66.0,30.17,North,0,0.0,0.0,99,99.99,,,-99.99,,2013-04-26 07:11:00,
2013-04-26 03:22:00,65.0,65.0,30.17,North,0,0.0,0.0,99,99.99,,,-99.99,,2013-04-26 07:22:00,
2013-04-26 03:31:00,66.0,66.0,30.17,North,0,0.0,0.0,100,99.99,,,-99.99,,2013-04-26 07:31:00,
2013-04-26 03:42:00,66.0,66.0,30.17,North,0,0.0,0.0,100,99.99,,,-99.99,,2013-04-26 07:42:00,
2013-04-26 03:52:00,65.0,65.0,30.17,North,0,0.0,0.0,100,99.99,,,-99.99,,2013-04-26 07:52:00,
2013-04-26 04:02:00,65.0,65.0,30.17,North,0,0.0,0.0,100,99.99,,,-99.99,,2013-04-26 08:02:00,
2013-04-26 04:11:00,65.0,65.0,30.17,North,0,0.0,0.0,100,99.99,,,-99.99,,2013-04-26 08:11:00,
2013-04-26 04:22:00,64.0,64.0,30.16,North,0,0.0,0.0,100,99.99,,,-99.99,,2013-04-26 08:22:00,
2013-04-26 04:32:00,64.0,64.0,30.16,North,0,0.0,0.0,100,99.99,,,-99.99,,2013-04-26 08:32:00,
2013-04-26 04:42:00,64.0,64.0,30.16,North,0,0.0,0.0,100,99.99,,,-99.99,,2013-04-26 08:42:00,
2013-04-26 04:52:00,64.0,64.0,30.16,North,0,0.0,0.0,100,99.99,,,-99.99,,2013-04-26 08:52:00,
2013-04-26 05:01:00,65.0,65.0,30.16,North,0,0.0,0.0,100,99.99,,,-99.99,,2013-04-26 09:01:00,
2013-04-26 05:11:00,65.0,65.0,30.16,North,0,0.0,0.0,100,99.99,,,-99.99,,2013-04-26 09:11:00,
2013-04-26 05:21:00,65.0,65.0,30.16,North,0,0.0,0.0,100,99.99,,,-99.99,,2013-04-26 09:21:00,
2013-04-26 05:33:00,65.0,65.0,30.16,North,0,0.0,0.0,100,99.99,,,-99.99,,2013-04-26 09:33:00,
2013-04-26 05:43:00,65.0,65.0,30.16,North,0,0.0,0.0,100,99.99,,,-99.99,,2013-04-26 09:43:00,
2013-04-26 05:53:00,65.0,65.0,30.16,North,0,0.0,0.0,100,99.99,,,-99.99,,2013-04-26 09:53:00,
2013-04-26 06:03:00,65.0,65.0,30.16,North,0,0.0,0.0,100,99.99,,,-99.99,,2013-04-26 10:03:00,
2013-04-26 06:12:00,65.0,65.0,30.16,North,0,0.0,0.0,100,99.99,,,-99.99,,2013-04-26 10:12:00,
2013-04-26 06:23:00,65.0,65.0,30.16,North,0,0.0,0.0,100,99.99,,,-99.99,,2013-04-26 10:23:00,
2013-04-26 06:33:00,65.0,65.0,30.17,North,0,0.0,0.0,100,99.99,,,-99.99,,2013-04-26 10:33:00,
2013-04-26 06:42:00,65.0,65.0,30.17,North,0,0.0,0.0,100,99.99,,,-99.99,,2013-04-26 10:42:00,
2013-04-26 06:52:00,65.0,65.0,30.18,North,0,0.0,0.0,100,99.99,,,-99.99,,2013-04-26 10:52:00,
2013-04-26 07:02:00,65.0,65.0,30.18,North,0,0.0,0.0,100,99.99,,,-99.99,,2013-04-26 11:02:00,
2013-04-26 07:11:00,65.0,65.0,30.18,North,0,0.0,0.0,100,99.99,,,-99.99,,2013-04-26 11:11:00,
2013-04-26 07:22:00,64.0,64.0,30.19,North,0,0.0,0.0,100,99.99,,,-99.99,,2013-04-26 11:22:00,
2013-04-26 07:32:00,64.0,64.0,30.19,North,0,0.0,0.0,100,99.99,,,-99.99,,2013-04-26 11:32:00,
2013-04-26 07:42:00,64.0,64.0,30.19,North,0,0.0,0.0,100,99.99,,,-99.99,,2013-04-26 11:42:00,
2013-04-26 07:52:00,65.0,65.0,30.20,North,0,0.0,0.0,100,99.99,,,-99.99,,2013-04-26 11:52:00,
2013-04-26 08:01:00,66.0,66.0,30.20,ENE,75,0.0,1.0,100,99.99,,,-99.99,,2013-04-26 12:01:00,
2013-04-26 08:11:00,66.0,66.0,30.20,ENE,75,0.0,1.0,100,99.99,,,-99.99,,2013-04-26 12:11:00,
2013-04-26 08:21:00,67.0,67.0,30.20,North,0,0.0,0.0,100,99.99,,,-99.99,,2013-04-26 12:21:00,
2013-04-26 08:32:00,68.0,68.0,30.21,North,0,0.0,0.0,100,99.99,,,-99.99,,2013-04-26 12:32:00,
2013-04-26 08:42:00,68.0,68.0,30.21,North,0,0.0,0.0,100,99.99,,,-99.99,,2013-04-26 12:42:00,
2013-04-26 08:52:00,69.0,69.0,30.21,SSE,150,1.0,3.0,100,99.99,,,-99.99,,2013-04-26 12:52:00,
2013-04-26 09:01:00,71.0,71.0,30.21,SSE,148,3.0,4.0,100,99.99,,,-99.99,,2013-04-26 13:01:00,
2013-04-26 09:11:00,71.0,71.0,30.21,SSE,148,3.0,4.0,100,99.99,,,-99.99,,2013-04-26 13:11:00,
2013-04-26 09:22:00,73.0,66.0,30.21,South,177,2.0,5.0,80,99.99,,,-99.99,,2013-04-26 13:22:00,
2013-04-26 09:32:00,74.0,65.0,30.22,South,170,2.0,4.0,74,99.99,,,-99.99,,2013-04-26 13:32:00,
2013-04-26 09:42:00,74.0,65.0,30.22,South,170,2.0,4.0,74,99.99,,,-99.99,,2013-04-26 13:42:00,
2013-04-26 09:52:00,76.0,66.0,30.23,SSE,152,2.0,4.0,71,99.99,,,-99.99,,2013-04-26 13:52:00,
2013-04-26 10:01:00,77.0,65.0,30.23,SSE,155,0.0,3.0,67,99.99,,,-99.99,,2013-04-26 14:01:00,
2013-04-26 10:11:00,77.0,65.0,30.23,SSE,155,0.0,3.0,67,99.99,,,-99.99,,2013-04-26 14:11:00,
2013-04-26 10:21:00,77.0,66.0,30.24,SSE,162,1.0,3.0,68,99.99,,,-99.99,,2013-04-26 14:21:00,
2013-04-26 10:32:00,78.0,64.0,30.24,SE,129,0.0,3.0,62,99.99,,,-99.99,,2013-04-26 14:32:00,
2013-04-26 10:42:00,78.0,64.0,30.24,SE,129,0.0,3.0,62,99.99,,,-99.99,,2013-04-26 14:42:00,
2013-04-26 10:52:00,80.0,65.0,30.25,ENE,63,1.0,5.0,60,99.99,,,-99.99,,2013-04-26 14:52:00,
2013-04-26 11:01:00,81.0,63.0,30.25,ENE,65,3.0,8.0,54,99.99,,,-99.99,,2013-04-26 15:01:00,
2013-04-26 11:12:00,81.0,63.0,30.25,ENE,65,3.0,8.0,54,99.99,,,-99.99,,2013-04-26 15:12:00,
2013-04-26 11:21:00,81.0,63.0,30.25,NNE,21,4.0,9.0,54,99.99,,,-99.99,,2013-04-26 15:21:00,
2013-04-26 11:33:00,82.0,63.0,30.24,ENE,70,4.0,8.0,52,99.99,,,-99.99,,2013-04-26 15:33:00,
2013-04-26 11:43:00,82.0,63.0,30.24,ENE,70,4.0,8.0,52,99.99,,,-99.99,,2013-04-26 15:43:00,
2013-04-26 11:53:00,84.0,62.0,30.24,SSE,163,4.0,8.0,48,99.99,,,-99.99,,2013-04-26 15:53:00,
2013-04-26 12:03:00,84.0,63.0,30.24,ENE,70,5.0,10.0,49,99.99,,,-99.99,,2013-04-26 16:03:00,
2013-04-26 12:12:00,84.0,63.0,30.24,ENE,70,5.0,10.0,49,99.99,,,-99.99,,2013-04-26 16:12:00,
2013-04-26 12:23:00,84.0,62.0,30.24,ENE,76,5.0,10.0,47,99.99,,,-99.99,,2013-04-26 16:23:00,
2013-04-26 12:33:00,84.0,63.0,30.24,NNW,346,6.0,10.0,49,99.99,,,-99.99,,2013-04-26 16:33:00,
2013-04-26 12:42:00,84.0,63.0,30.24,NNW,346,6.0,10.0,49,99.99,,,-99.99,,2013-04-26 16:42:00,
2013-04-26 12:53:00,85.0,62.0,30.24,ENE,65,5.0,12.0,47,99.99,,,-99.99,,2013-04-26 16:53:00,
2013-04-26 13:02:00,84.0,62.0,30.24,ENE,58,9.0,12.0,48,99.99,,,-99.99,,2013-04-26 17:02:00,
2013-04-26 13:12:00,84.0,62.0,30.24,ENE,58,9.0,12.0,48,99.99,,,-99.99,,2013-04-26 17:12:00,
2013-04-26 13:22:00,84.0,63.0,30.23,ENE,62,7.0,12.0,50,99.99,,,-99.99,,2013-04-26 17:22:00,
2013-04-26 13:32:00,85.0,64.0,30.23,ENE,69,4.0,9.0,50,99.99,,,-99.99,,2013-04-26 17:32:00,
2013-04-26 13:42:00,85.0,64.0,30.23,ENE,69,4.0,9.0,50,99.99,,,-99.99,,2013-04-26 17:42:00,
2013-04-26 13:52:00,85.0,63.0,30.22,NE,39,5.0,14.0,48,99.99,,,-99.99,,2013-04-26 17:52:00,
2013-04-26 14:02:00,85.0,63.0,30.22,ESE,117,5.0,10.0,48,99.99,,,-99.99,,2013-04-26 18:02:00,
2013-04-26 14:12:00,86.0,63.0,30.21,ENE,62,5.0,10.0,47,99.99,,,-99.99,,2013-04-26 18:12:00,
2013-04-26 14:22:00,86.0,63.0,30.21,ENE,62,5.0,10.0,47,99.99,,,-99.99,,2013-04-26 18:22:00,
2013-04-26 14:33:00,86.0,63.0,30.20,ENE,76,5.0,10.0,47,99.99,,,-99.99,,2013-04-26 18:33:00,
2013-04-26 14:42:00,86.0,63.0,30.20,ENE,76,5.0,10.0,47,99.99,,,-99.99,,2013-04-26 18:42:00,
2013-04-26 14:52:00,86.0,63.0,30.20,NE,55,7.0,11.0,47,99.99,,,-99.99,,2013-04-26 18:52:00,
2013-04-26 15:01:00,87.0,64.0,30.19,ENE,60,4.0,9.0,46,99.99,,,-99.99,,2013-04-26 19:01:00,
2013-04-26 15:12:00,87.0,64.0,30.19,ENE,60,4.0,9.0,46,99.99,,,-99.99,,2013-04-26 19:12:00,
2013-04-26 15:22:00,86.0,64.0,30.19,ENE,60,4.0,7.0,48,99.99,,,-99.99,,2013-04-26 19:22:00,
2013-04-26 15:32:00,86.0,63.0,30.19,ENE,58,6.0,9.0,47,99.99,,,-99.99,,2013-04-26 19:32:00,
2013-04-26 15:42:00,86.0,63.0,30.19,ENE,58,6.0,9.0,47,99.99,,,-99.99,,2013-04-26 19:42:00,
2013-04-26 15:52:00,86.0,63.0,30.19,ENE,68,7.0,12.0,47,99.99,,,-99.99,,2013-04-26 19:52:00,
2013-04-26 16:02:00,87.0,64.0,30.18,ENE,60,4.0,12.0,46,99.99,,,-99.99,,2013-04-26 20:02:00,
2013-04-26 16:11:00,86.0,64.0,30.18,ENE,58,6.0,9.0,48,99.99,,,-99.99,,2013-04-26 20:11:00,
2013-04-26 16:21:00,86.0,64.0,30.18,ENE,58,6.0,9.0,48,99.99,,,-99.99,,2013-04-26 20:21:00,
2013-04-26 16:32:00,86.0,63.0,30.17,North,8,5.0,9.0,47,99.99,,,-99.99,,2013-04-26 20:32:00,
2013-04-26 16:42:00,86.0,63.0,30.17,North,8,5.0,9.0,47,99.99,,,-99.99,,2013-04-26 20:42:00,
2013-04-26 16:52:00,88.0,63.0,30.16,SE,141,3.0,6.0,44,99.99,,,-99.99,,2013-04-26 20:52:00,
2013-04-26 17:02:00,88.0,64.0,30.16,ESE,120,5.0,10.0,45,99.99,,,-99.99,,2013-04-26 21:02:00,
2013-04-26 17:11:00,88.0,64.0,30.16,ESE,120,5.0,10.0,45,99.99,,,-99.99,,2013-04-26 21:11:00,
2013-04-26 17:22:00,88.0,62.0,30.16,ENE,66,7.0,13.0,42,99.99,,,-99.99,,2013-04-26 21:22:00,
2013-04-26 17:33:00,88.0,61.0,30.16,NE,44,8.0,12.0,41,99.99,,,-99.99,,2013-04-26 21:33:00,
2013-04-26 17:42:00,88.0,61.0,30.16,NE,44,8.0,12.0,41,99.99,,,-99.99,,2013-04-26 21:42:00,
2013-04-26 17:53:00,87.0,63.0,30.16,NNE,27,6.0,10.0,45,99.99,,,-99.99,,2013-04-26 21:53:00,
2013-04-26 18:02:00,88.0,62.0,30.16,ENE,66,5.0,8.0,42,99.99,,,-99.99,,2013-04-26 22:02:00,
2013-04-26 18:12:00,88.0,62.0,30.16,ENE,66,5.0,8.0,42,99.99,,,-99.99,,2013-04-26 22:12:00,
2013-04-26 18:23:00,88.0,63.0,30.16,ENE,66,4.0,7.0,44,99.99,,,-99.99,,2013-04-26 22:23:00,
2013-04-26 18:33:00,87.0,64.0,30.16,ENE,69,2.0,5.0,46,99.99,,,-99.99,,2013-04-26 22:33:00,
2013-04-26 18:42:00,87.0,64.0,30.16,ENE,69,2.0,5.0,46,99.99,,,-99.99,,2013-04-26 22:42:00,
2013-04-26 18:52:00,87.0,64.0,30.16,East,93,6.0,9.0,46,99.99,,,-99.99,,2013-04-26 22:52:00,
2013-04-26 19:02:00,87.0,62.0,30.15,East,87,5.0,8.0,44,99.99,,,-99.99,,2013-04-26 23:02:00,
2013-04-26 19:12:00,87.0,62.0,30.15,East,87,5.0,8.0,44,99.99,,,-99.99,,2013-04-26 23:12:00,
2013-04-26 19:21:00,86.0,65.0,30.16,ENE,72,5.0,10.0,49,99.99,,,-99.99,,2013-04-26 23:21:00,
2013-04-26 19:32:00,84.0,63.0,30.16,ENE,72,5.0,9.0,50,99.99,,,-99.99,,2013-04-26 23:32:00,
2013-04-26 19:42:00,84.0,63.0,30.16,ENE,72,5.0,9.0,50,99.99,,,-99.99,,2013-04-26 23:42:00,
2013-04-26 19:52:00,83.0,66.0,30.16,ENE,60,5.0,11.0,56,99.99,,,-99.99,,2013-04-26 23:52:00,
2013-04-26 20:01:00,81.0,64.0,30.17,East,89,5.0,11.0,57,99.99,,,-99.99,,2013-04-27 00:01:00,
2013-04-26 20:11:00,81.0,64.0,30.17,East,89,5.0,11.0,57,99.99,,,-99.99,,2013-04-27 00:11:00,
2013-04-26 20:21:00,80.0,63.0,30.17,ESE,118,6.0,11.0,57,99.99,,,-99.99,,2013-04-27 00:21:00,
2013-04-26 20:32:00,80.0,64.0,30.18,ESE,121,4.0,7.0,58,99.99,,,-99.99,,2013-04-27 00:32:00,
2013-04-26 20:42:00,80.0,64.0,30.18,ESE,121,4.0,7.0,58,99.99,,,-99.99,,2013-04-27 00:42:00,
2013-04-26 20:52:00,79.0,64.0,30.18,ENE,62,3.0,5.0,61,99.99,,,-99.99,,2013-04-27 00:52:00,
2013-04-26 21:01:00,78.0,64.0,30.18,ENE,76,5.0,9.0,63,99.99,,,-99.99,,2013-04-27 01:01:00,
2013-04-26 21:12:00,78.0,64.0,30.18,ENE,76,5.0,9.0,63,99.99,,,-99.99,,2013-04-27 01:12:00,
2013-04-26 21:21:00,77.0,64.0,30.19,East,84,4.0,7.0,64,99.99,,,-99.99,,2013-04-27 01:21:00,
2013-04-26 21:32:00,77.0,64.0,30.20,ENE,77,4.0,7.0,65,99.99,,,-99.99,,2013-04-27 01:32:00,
2013-04-26 21:42:00,77.0,64.0,30.20,ENE,77,4.0,7.0,65,99.99,,,-99.99,,2013-04-27 01:42:00,
2013-04-26 21:52:00,76.0,64.0,30.20,ENE,76,4.0,7.0,67,99.99,,,-99.99,,2013-04-27 01:52:00,
2013-04-26 22:02:00,75.0,65.0,30.21,ENE,70,6.0,8.0,70,99.99,,,-99.99,,2013-04-27 02:02:00,
2013-04-26 22:11:00,75.0,65.0,30.21,ENE,70,6.0,8.0,70,99.99,,,-99.99,,2013-04-27 02:11:00,
2013-04-26 22:22:00,75.0,65.0,30.22,ENE,73,5.0,9.0,70,99.99,,,-99.99,,2013-04-27 02:22:00,
2013-04-26 22:32:00,74.0,64.0,30.22,ENE,68,5.0,8.0,72,99.99,,,-99.99,,2013-04-27 02:32:00,
2013-04-26 22:42:00,74.0,64.0,30.22,ENE,68,5.0,8.0,72,99.99,,,-99.99,,2013-04-27 02:42:00,
2013-04-26 22:52:00,74.0,65.0,30.22,ENE,68,5.0,8.0,74,99.99,,,-99.99,,2013-04-27 02:52:00,
2013-04-26 23:02:00,73.0,65.0,30.23,ENE,73,5.0,10.0,77,99.99,,,-99.99,,2013-04-27 03:02:00,
2013-04-26 23:11:00,73.0,65.0,30.23,ENE,73,5.0,10.0,77,99.99,,,-99.99,,2013-04-27 03:11:00,
2013-04-26 23:22:00,73.0,66.0,30.23,ENE,73,5.0,8.0,80,99.99,,,-99.99,,2013-04-27 03:22:00,
2013-04-26 23:33:00,73.0,67.0,30.23,East,80,4.0,8.0,81,99.99,,,-99.99,,2013-04-27 03:33:00,
2013-04-26 23:43:00,73.0,67.0,30.23,East,80,4.0,8.0,81,99.99,,,-99.99,,2013-04-27 03:43:00,
2013-04-26 23:53:00,72.0,68.0,30.23,ENE,66,4.0,8.0,86,99.99,,,-99.99,,2013-04-27 03:53:00,